Content
SEND FEEDBACK

Daily
Averages
Monthly
Summary
Belgium

GENT, BELGIUM


Home > Europe > Belgium
Elevation: 43 feet     Latitude: 51 11N     Longitude: 003 49E

WEATHER
 
SELECT A DAY
Number of Records: 313,173;   Date Range: 7/1/96 - 10/21/14
 
SHARE

PRINT THIS DATA

[ ← Previous Day ]
WEATHER ALMANAC - SEPTEMBER 2, 2014
[ Next Day → ]
[ °C ]   °F
Weather ElementAverageHighLow
Temperature63.8 °F73.4 °F (3:50 pm)53.6 °F (5:50 am)
Dewpoint55.5 °F59 °F (9:20 pm)51.8 °F (2:50 am)
Humidity74.2 %100 % (6:20 am)44 % (4:00 pm)
Barometer30.18 in30.24 in (11:00 pm)30.12 in (8:00 am)
Wind Speed3.5 mph9.2 mph (2:20 am)
Weather ElementAverage
Visibility8.6 mi
Wind DirectionENE (64.3 °)

Weather ElementTotal
Precipitation---
Heating Degree Days1.5 (Base 65)
Growing Degree Days13.5 (Base 50)
Averaged from 72 records on September 2, 2014
WEATHER CONDITIONS BREAKOUT
WIND DIRECTION BREAKOUT
WEATHER BY HOUR - SEPTEMBER 2, 2014
[ °C ]   °F
Local TimeTemperatureDewpointHumidityBarometerVisibilityWind DirectionWind SpeedGust SpeedPrecipitationEventsConditions
12:00 AM62.0 °F57.0 °F79 %30.16 in16.0 miNorth2.2 mphOvercast
12:20 AM60.8 °F57.2 °F88 %30.15 in6.2 miNorth (350°)1.2 mphMostly Cloudy
12:50 AM60.8 °F57.2 °F88 %30.15 inVariable2.3 mphClear
1:00 AM61.0 °F57.0 °F82 %30.16 in12.0 miNE (40°)2.2 mphMostly Cloudy
1:20 AM60.8 °F57.2 °F88 %30.15 inVariable1.2 mphClear
1:50 AM60.8 °F57.2 °F88 %30.15 in6.2 miNNE (20°)2.3 mphRainLight Rain
2:00 AM61.0 °F57.0 °F83 %30.16 in10.0 miNNE (20°)2.2 mphRainLight Rain
2:20 AM60.8 °F57.2 °F88 %30.15 inVariable1.2 mphClear
2:50 AM60.8 °F57.2 °F88 %30.15 inVariable1.2 mphClear
3:00 AM61.0 °F57.0 °F81 %30.16 in11.0 miCalmOvercast
3:20 AM60.8 °F57.2 °F88 %30.15 inVariable2.3 mphClear
3:50 AM60.8 °F57.2 °F88 %30.15 inCalmClear
4:00 AM60.0 °F56.0 °F84 %30.15 in7.0 miCalmOvercast
4:20 AM59.0 °F55.4 °F88 %30.12 in5.6 miVariable1.2 mph
4:50 AM59.0 °F55.4 °F88 %30.15 in3.7 miCalm
5:00 AM58.0 °F56.0 °F91 %30.15 inCalm
5:20 AM57.2 °F55.4 °F94 %30.15 inWSW (240°)1.2 mphMist
5:50 AM57.2 °F55.4 °F94 %30.15 in3.1 miNW (310°)1.2 mph
6:00 AM56.0 °F55.0 °F95 %30.16 in0.0 miNW (310°)2.2 mphFogFog
6:20 AM55.4 °F55.4 °F100 %30.15 in0.2 miEast (100°)1.2 mphFogFog
6:50 AM53.6 °F53.6 °F100 %30.15 in2.2 miVariable1.2 mphFogPatches of Fog
7:00 AM54.0 °F53.0 °F96 %30.16 in2.0 miEast (90°)2.2 mphFogPatches of Fog
7:20 AM55.4 °F53.6 °F94 %30.15 in2.2 miNNE (20°)1.2 mphFogPatches of Fog
7:50 AM55.4 °F53.6 °F94 %30.15 in2.2 miENE (60°)1.2 mphFogFog
8:00 AM56.0 °F54.0 °F92 %30.17 in2.0 miENE (60°)2.2 mphFogPatches of Fog
8:20 AM57.2 °F53.6 °F88 %30.15 in3.7 miENE (60°)3.5 mph
8:50 AM59.0 °F55.4 °F88 %30.18 in3.7 miVariable1.2 mph
9:00 AM59.0 °F56.0 °F87 %30.18 in4.0 miCalmMostly Cloudy
9:20 AM60.8 °F57.2 °F88 %30.18 in4.3 miVariable1.2 mph
9:50 AM62.6 °F57.2 °F82 %30.18 in4.3 miVariable1.2 mph
10:00 AM62.0 °F58.0 °F82 %30.20 in4.0 miEast (90°)2.2 mphMostly Cloudy
10:20 AM62.6 °F59.0 °F88 %30.18 inVariable1.2 mphClear
10:50 AM64.4 °F59.0 °F83 %30.21 in6.2 miVariable2.3 mphPartly Cloudy
11:00 AM64.0 °F58.0 °F77 %30.21 in7.0 miEast (100°)2.2 mphMostly Cloudy
11:20 AM64.4 °F57.2 °F77 %30.21 in6.2 miENE (70°)3.5 mphPartly Cloudy
11:50 AM66.2 °F57.2 °F73 %30.21 inVariable2.3 mphClear
12:00 PM66.0 °F57.0 °F66 %30.22 in9.0 miEast (100°)2.2 mphMostly Cloudy
12:20 PM69.8 °F57.2 °F64 %30.21 inVariable3.5 mphClear
12:50 PM69.8 °F53.6 °F56 %30.21 in6.2 miESE (120°)5.8 mphPartly Cloudy
1:00 PM69.0 °F53.0 °F47 %30.21 in12.0 miESE (120°)6.7 mphScattered Clouds
1:20 PM69.8 °F53.6 °F56 %30.21 in6.2 miSE (130°)4.6 mphScattered Clouds
1:50 PM71.6 °F53.6 °F53 %30.18 in6.2 miESE (120°)4.6 mphScattered Clouds
2:00 PM71.0 °F54.0 °F44 %30.21 in12.0 miESE (120°)4.5 mphPartly Cloudy
2:20 PM69.8 °F53.6 °F56 %30.18 in6.2 miEast (100°)4.6 mphMostly Cloudy
2:50 PM71.6 °F55.4 °F57 %30.18 in6.2 miEast (100°)5.8 mphScattered Clouds
3:00 PM71.0 °F54.0 °F46 %30.20 in12.0 miEast (100°)4.5 mphPartly Cloudy
3:20 PM71.6 °F51.8 °F50 %30.18 in6.2 miNNE (30°)6.9 mphScattered Clouds
3:50 PM69.8 °F53.6 °F56 %30.18 in6.2 miNE (50°)6.9 mphScattered Clouds
4:00 PM70.0 °F54.0 °F47 %30.20 in12.0 miNE (50°)6.7 mphPartly Cloudy
4:20 PM73.4 °F55.4 °F53 %30.18 in6.2 miNE (50°)4.6 mphScattered Clouds
4:50 PM69.8 °F53.6 °F56 %30.18 in6.2 miENE (60°)5.8 mphScattered Clouds
5:00 PM70.0 °F54.0 °F46 %30.20 in12.0 miENE (60°)6.7 mphPartly Cloudy
5:20 PM71.6 °F53.6 °F53 %30.18 in6.2 miNE (50°)8.1 mphScattered Clouds
5:50 PM71.6 °F53.6 °F53 %30.18 in6.2 miENE (70°)6.9 mphScattered Clouds
6:00 PM71.0 °F54.0 °F45 %30.20 in12.0 miENE (70°)6.7 mphPartly Cloudy
6:20 PM69.8 °F53.6 °F56 %30.18 inNNE (30°)5.8 mphClear
6:50 PM69.8 °F53.6 °F56 %30.18 inNE (50°)9.2 mphClear
7:00 PM69.0 °F54.0 °F50 %30.21 in19.0 miNE (50°)8.9 mphScattered Clouds
7:20 PM68.0 °F53.6 °F60 %30.18 inNE (50°)6.9 mphClear
7:50 PM68.0 °F55.4 °F64 %30.18 inNE (50°)6.9 mphClear
8:00 PM68.0 °F55.0 °F55 %30.21 in31.0 miNE (50°)6.7 mph
8:20 PM66.2 °F55.4 °F68 %30.21 inNE (50°)5.8 mphClear
8:50 PM64.4 °F55.4 °F73 %30.21 inENE (60°)4.6 mphClear
9:00 PM65.0 °F55.0 °F62 %30.22 in31.0 miENE (60°)4.5 mphScattered Clouds
9:20 PM62.6 °F55.4 °F77 %30.21 inENE (60°)3.5 mphClear
9:50 PM62.6 °F55.4 °F77 %30.21 inENE (60°)4.6 mphClear
10:00 PM63.0 °F56.0 °F70 %30.23 in31.0 miENE (60°)4.5 mphScattered Clouds
10:20 PM62.6 °F55.4 °F77 %30.21 inENE (60°)4.6 mphClear
10:50 PM60.8 °F57.2 °F88 %30.21 inENE (60°)4.6 mphClear
11:00 PM61.0 °F56.0 °F80 %30.24 in25.0 miENE (60°)4.5 mphScattered Clouds
11:20 PM60.8 °F55.4 °F82 %30.21 inENE (70°)3.5 mphClear
11:50 PM60.8 °F57.2 °F88 %30.21 inNE (50°)3.5 mphClear
Hourly data recorded from EBAW, located miles away from Gent, Belgium







STORIES FROM OUR PARTNERS